• In Germany
  • List of Countries
  • For 7 days
  • Water Temperature
  • Satellite Maps
  • Weather Map
  • Weather Widgets
  • user-avatar
    Login

    Hourly Weather Belize

    Today, 21 February, Wednesday

    Time Temperature Precipitation Wind Pressure Humidity
    00:00 +26°C° 0 mm 9 mps 762 mmHg 88%
    01:00 +26°C° 0 mm 9 mps 762 mmHg 88%
    02:00 +26°C° 0 mm 8 mps 762 mmHg 88%
    03:00 +26°C° 0 mm 8 mps 762 mmHg 88%
    04:00 +24°C° 0 mm 7 mps 762 mmHg 88%
    05:00 +24°C° 0 mm 7 mps 762 mmHg 88%
    06:00 +24°C° 0 mm 7 mps 762 mmHg 88%
    07:00 +27°C° 0.2 mm 7 mps 763 mmHg 82%
    08:00 +28°C° 0.2 mm 7 mps 763 mmHg 77%
    09:00 +29°C° 0.2 mm 7 mps 763 mmHg 71%
    10:00 +29°C° 0.7 mm 7 mps 763 mmHg 74%
    11:00 +29°C° 0.7 mm 7 mps 763 mmHg 77%
    12:00 +29°C° 0.7 mm 7 mps 763 mmHg 80%
    13:00 +28°C° 0.6 mm 7 mps 763 mmHg 83%
    14:00 +28°C° 0.6 mm 7 mps 763 mmHg 85%
    15:00 +28°C° 0.6 mm 7 mps 762 mmHg 88%
    16:00 +27°C° 0.2 mm 6 mps 762 mmHg 89%
    17:00 +26°C° 0.2 mm 6 mps 762 mmHg 90%
    18:00 +25°C° 0.2 mm 5 mps 762 mmHg 91%
    19:00 +25°C° 0 mm 5 mps 763 mmHg 92%
    20:00 +24°C° 0 mm 6 mps 763 mmHg 93%
    21:00 +24°C° 0 mm 6 mps 763 mmHg 94%
    22:00 +24°C° 0.1 mm 6 mps 763 mmHg 94%
    23:00 +24°C° 0.1 mm 6 mps 763 mmHg 94%

    Tomorrow, 22 February, Thursday

    Time Temperature Precipitation Wind Pressure Humidity
    00:00 +24°C° 0.1 mm 6 mps 763 mmHg 94%
    01:00 +24°C° 0.1 mm 6 mps 763 mmHg 94%
    02:00 +24°C° 0.1 mm 6 mps 763 mmHg 94%
    03:00 +23°C° 0.1 mm 6 mps 762 mmHg 94%
    04:00 +23°C° 0.2 mm 6 mps 762 mmHg 95%
    05:00 +23°C° 0.2 mm 6 mps 763 mmHg 96%
    06:00 +23°C° 0.2 mm 6 mps 763 mmHg 97%
    07:00 +24°C° 0.4 mm 6 mps 763 mmHg 95%
    08:00 +26°C° 0.4 mm 6 mps 764 mmHg 94%
    09:00 +27°C° 0.4 mm 6 mps 764 mmHg 92%
    10:00 +27°C° 0.4 mm 6 mps 764 mmHg 90%
    11:00 +28°C° 0.4 mm 5 mps 764 mmHg 88%
    12:00 +28°C° 0.4 mm 5 mps 764 mmHg 86%
    13:00 +28°C° 0.6 mm 5 mps 763 mmHg 87%
    14:00 +28°C° 0.6 mm 5 mps 763 mmHg 88%
    15:00 +28°C° 0.6 mm 5 mps 762 mmHg 88%
    16:00 +27°C° 1.2 mm 5 mps 762 mmHg 91%
    17:00 +26°C° 1.2 mm 5 mps 762 mmHg 94%
    18:00 +25°C° 1.2 mm 5 mps 763 mmHg 96%
    19:00 +23°C° 1.1 mm 5 mps 763 mmHg 97%
    20:00 +23°C° 1.1 mm 5 mps 763 mmHg 97%
    21:00 +23°C° 1.1 mm 5 mps 764 mmHg 98%
    22:00 +23°C° 0.2 mm 5 mps 764 mmHg 98%
    23:00 +23°C° 0.2 mm 5 mps 764 mmHg 98%

    Day after tomorrow, 23 February, Friday

    Time Temperature Precipitation Wind Pressure Humidity
    00:00 +23°C° 0.2 mm 5 mps 764 mmHg 98%
    01:00 +23°C° 0.1 mm 5 mps 763 mmHg 98%
    02:00 +23°C° 0.1 mm 5 mps 763 mmHg 98%
    03:00 +23°C° 0.1 mm 5 mps 762 mmHg 98%
    04:00 +23°C° 0.2 mm 5 mps 762 mmHg 98%
    05:00 +23°C° 0.2 mm 5 mps 763 mmHg 98%
    06:00 +23°C° 0.2 mm 5 mps 763 mmHg 98%
    07:00 +25°C° 0.1 mm 5 mps 763 mmHg 95%
    08:00 +26°C° 0.1 mm 5 mps 764 mmHg 93%
    09:00 +27°C° 0.1 mm 5 mps 764 mmHg 90%
    10:00 +28°C° 0.4 mm 5 mps 764 mmHg 85%
    11:00 +29°C° 0.4 mm 5 mps 764 mmHg 81%
    12:00 +29°C° 0.4 mm 5 mps 764 mmHg 76%
    13:00 +29°C° 0.3 mm 5 mps 763 mmHg 75%
    14:00 +29°C° 0.3 mm 5 mps 762 mmHg 74%
    15:00 +29°C° 0.3 mm 5 mps 761 mmHg 73%
    16:00 +28°C° 0 mm 4 mps 761 mmHg 78%
    17:00 +27°C° 0 mm 4 mps 761 mmHg 84%
    18:00 +26°C° 0 mm 4 mps 762 mmHg 89%
    19:00 +25°C° 0 mm 4 mps 762 mmHg 91%
    20:00 +25°C° 0 mm 4 mps 762 mmHg 94%
    21:00 +23°C° 0 mm 4 mps 762 mmHg 96%
    22:00 +23°C° 0 mm 4 mps 762 mmHg 96%
    23:00 +23°C° 0 mm 4 mps 762 mmHg 97%

    24 February, Saturday

    Time Temperature Precipitation Wind Pressure Humidity
    00:00 +23°C° 0 mm 4 mps 762 mmHg 97%
    01:00 +23°C° 0.1 mm 4 mps 761 mmHg 97%
    02:00 +23°C° 0.1 mm 4 mps 761 mmHg 98%
    03:00 +23°C° 0.1 mm 4 mps 760 mmHg 98%
    04:00 +23°C° 0.4 mm 4 mps 761 mmHg 98%
    05:00 +23°C° 0.4 mm 4 mps 761 mmHg 98%
    06:00 +22°C° 0.4 mm 4 mps 761 mmHg 98%
    07:00 +25°C° 0.5 mm 4 mps 761 mmHg 95%
    08:00 +26°C° 0.5 mm 4 mps 762 mmHg 92%
    09:00 +27°C° 0.5 mm 4 mps 762 mmHg 89%
    10:00 +28°C° 0.5 mm 4 mps 762 mmHg 85%
    11:00 +29°C° 0.5 mm 4 mps 762 mmHg 80%
    12:00 +30°C° 0.5 mm 4 mps 761 mmHg 75%
    13:00 +30°C° 0 mm 4 mps 761 mmHg 70%
    14:00 +32°C° 0 mm 4 mps 760 mmHg 65%
    15:00 +32°C° 0 mm 4 mps 759 mmHg 59%
    16:00 +29°C° 0 mm 4 mps 759 mmHg 68%
    17:00 +28°C° 0 mm 4 mps 759 mmHg 77%
    18:00 +26°C° 0 mm 4 mps 760 mmHg 86%
    19:00 +25°C° 0 mm 4 mps 760 mmHg 89%
    20:00 +23°C° 0 mm 4 mps 760 mmHg 92%
    21:00 +23°C° 0 mm 4 mps 761 mmHg 96%
    22:00 +23°C° 0 mm 5 mps 761 mmHg 96%
    23:00 +23°C° 0 mm 5 mps 760 mmHg 96%

    25 February, Sunday

    Time Temperature Precipitation Wind Pressure Humidity
    00:00 +23°C° 0 mm 5 mps 760 mmHg 95%
    01:00 +23°C° 0 mm 5 mps 760 mmHg 96%
    02:00 +23°C° 0 mm 5 mps 760 mmHg 96%
    03:00 +23°C° 0 mm 5 mps 759 mmHg 96%
    04:00 +23°C° 0 mm 5 mps 760 mmHg 96%
    05:00 +23°C° 0 mm 5 mps 760 mmHg 97%
    06:00 +23°C° 0 mm 5 mps 760 mmHg 97%
    07:00 +26°C° 0 mm 5 mps 761 mmHg 90%
    08:00 +27°C° 0 mm 5 mps 761 mmHg 82%
    09:00 +29°C° 0 mm 6 mps 762 mmHg 75%
    10:00 +30°C° 0 mm 6 mps 762 mmHg 70%
    11:00 +32°C° 0 mm 5 mps 761 mmHg 64%
    12:00 +33°C° 0 mm 5 mps 761 mmHg 59%
    13:00 +33°C° 0 mm 5 mps 760 mmHg 59%
    14:00 +32°C° 0 mm 5 mps 760 mmHg 59%
    15:00 +32°C° 0 mm 5 mps 759 mmHg 59%
    16:00 +30°C° 0 mm 5 mps 759 mmHg 68%
    17:00 +28°C° 0 mm 5 mps 760 mmHg 76%
    18:00 +26°C° 0 mm 5 mps 760 mmHg 85%
    19:00 +26°C° 0 mm 5 mps 760 mmHg 88%
    20:00 +25°C° 0 mm 5 mps 761 mmHg 91%
    21:00 +25°C° 0 mm 5 mps 761 mmHg 93%
    22:00 +25°C° 0 mm 5 mps 761 mmHg 94%
    23:00 +25°C° 0 mm 5 mps 761 mmHg 94%

    26 February, Monday

    Time Temperature Precipitation Wind Pressure Humidity
    00:00 +25°C° 0 mm 5 mps 761 mmHg 95%
    01:00 +25°C° 0 mm 5 mps 761 mmHg 95%
    02:00 +23°C° 0 mm 5 mps 760 mmHg 95%
    03:00 +23°C° 0 mm 5 mps 760 mmHg 96%
    04:00 +23°C° 0 mm 5 mps 760 mmHg 96%
    05:00 +23°C° 0 mm 5 mps 761 mmHg 96%
    06:00 +23°C° 0 mm 5 mps 761 mmHg 96%
    07:00 +26°C° 0.1 mm 5 mps 761 mmHg 89%
    08:00 +27°C° 0.1 mm 6 mps 762 mmHg 83%
    09:00 +29°C° 0.1 mm 6 mps 762 mmHg 76%
    10:00 +30°C° 0.1 mm 6 mps 762 mmHg 70%
    11:00 +32°C° 0.1 mm 6 mps 762 mmHg 65%
    12:00 +33°C° 0.1 mm 6 mps 761 mmHg 59%
    13:00 +33°C° 0 mm 5 mps 761 mmHg 59%
    14:00 +32°C° 0 mm 5 mps 760 mmHg 59%
    15:00 +32°C° 0 mm 5 mps 760 mmHg 60%
    16:00 +30°C° 0 mm 5 mps 760 mmHg 68%
    17:00 +28°C° 0 mm 5 mps 760 mmHg 76%
    18:00 +26°C° 0 mm 5 mps 760 mmHg 84%
    19:00 +26°C° 0 mm 5 mps 761 mmHg 88%
    20:00 +25°C° 0 mm 4 mps 761 mmHg 91%
    21:00 +23°C° 0 mm 4 mps 761 mmHg 95%
    22:00 +23°C° 0 mm 4 mps 761 mmHg 95%
    23:00 +23°C° 0 mm 4 mps 761 mmHg 96%
    Show more